Hourly Weather Roundup
Issued by NWS Central Illinois

Home | Current Version | Previous Version | Text Only | Print | Product List | Glossary On
Versions: 1 2 3 4 5 6 7 8 9 10 11 12 13 14 15 16 17 18 19 20 21 22 23 24 25 26 27 28 29 30 31 32 33 34 35 36 37 38 39 40 41 42 43 44 45 46 47 48 49 50
000
NZUS43 KILX 250310
HWRILX

AREA WEATHER ROUNDUP
NATIONAL WEATHER SERVICE, LINCOLN IL
1000 PM CDT FRI OCT 24 2014


CITY           SKY/WX    TMP DP  RH WIND       PRES   REMARKS
BLOOMINGTON    MOCLDY    57  55  93 S9        30.00S FOG
CHAMPAIGN      MOCLDY    54  52  93 S3        30.02R FOG
DECATUR        CLOUDY    58  53  84 S6        30.00S
FLORA          PTCLDY    51  49  93 CALM      30.04S
GALESBURG      MOCLDY    58  53  83 S5        29.95F
JACKSONVILLE   MOCLDY    64  50  62 S6        29.97R
LACON          CLOUDY    59  50  71 S3        29.95S
LAWRENCEVILLE  PTCLDY    51  49  92 S5        30.04S
LITCHFIELD     PTCLDY    58  48  70 S10       29.99S
$$


CITY           SKY/WX    TMP DP  RH WIND       PRES   REMARKS
LINCOLN        CLOUDY    57  54  87 CALM      29.98R
MACOMB         MOCLDY    56  51  85 CALM      29.99R
MATTOON        PTCLDY    57  52  83 S7        30.00S
MT CARMEL AP   PTCLDY    55  52  88 CALM      30.04S
OLNEY-NOBLE AP CLEAR     50  48  93 CALM      30.04S
PARIS          PTCLDY    49  48  99 CALM      30.03R FOG
PEORIA         CLOUDY    63  51  65 S9        29.98R
PONTIAC        CLOUDY    59  55  85 S8        29.98R
RANTOUL        MOCLDY    53  52  95 CALM      30.01R FOG
ROBINSON       PTCLDY    52  50  93 CALM      30.04S
SPRINGFIELD    MOCLDY    61  50  67 S5        29.98R
TAYLORVILLE    PTCLDY    55  52  88 S7        29.99S
$$

...REGIONAL REPORTS...


CITY           SKY/WX    TMP DP  RH WIND       PRES   REMARKS
CHICAGO O`HARE CLOUDY    61  46  57 W8        29.94S
KANKAKEE       CLOUDY    56  52  86 SW8       29.97F
MOLINE         CLOUDY    60  56  86 W5        29.95S FOG
MOUNT VERNON   PTCLDY    50  46  87 CALM      30.05S
PITTSFIELD     MOCLDY    64  55  71 SW5       29.98R
QUINCY         MOCLDY    62  57  83 SW8       29.97R
ROCKFORD       CLOUDY    60  46  59 SW10      29.95F
$$


CITY           SKY/WX    TMP DP  RH WIND       PRES   REMARKS
BURLINGTON     MOCLDY    57  55  93 S3        29.96S
CEDAR RAPIDS   FOG       54  54 100 S5        29.94S VSB 1/2
DES MOINES     FOG       59  58  96 S6        29.95S VSB 3/4
KIRKSVILLE     PTCLDY    64  60  87 SW5       29.98R
OTTUMWA        FOG       56  55  97 SW3       29.95S VSB 1/4
ST LOUIS       PTCLDY    67  49  52 S5        30.00S
$$


CITY           SKY/WX    TMP DP  RH WIND       PRES   REMARKS
TERRE HAUTE    CLEAR     50  48  93 CALM      30.03R
EVANSVILLE     CLEAR     54  51  90 CALM      30.07R
INDIANAPOLIS   PTCLDY    53  48  83 SW5       30.02S
LAFAYETTE      MOCLDY    53  50  89 SW3       30.01R
MADISON        CLOUDY    55  50  83 CALM      29.91S
MILWAUKEE      CLOUDY    54  50  86 S6        29.92F FOG
$$





USA.gov is the U.S. government's official web portal to all federal, state and local government web resources and services.